Location: Caltech
(34.1382°N, 118.1253°W)
Time: 05:08:33
(UTC-07:00)

Gbstr 26 Del rocket - Visible Passes

Search period start: 21 April 2014 00:00
Search period end: 01 May 2014 00:00
Orbit: 494 x 1280 km, 51.8° (Epoch: 20 April)

Date Brightness Start Highest point End Pass type
(mag) Time Alt. Az. Time Alt. Az. Time Alt. Az.
21 Apr 6.2 00:50:05 22° NE 00:50:05 22° NE 00:52:37 10° NE visible
21 Apr 5.4 02:32:46 38° NNW 02:32:58 38° NNW 02:40:27 10° NE visible
21 Apr 6.4 04:16:51 10° NW 04:22:48 22° N 04:28:52 10° NE visible
22 Apr 6.0 00:47:37 25° NE 00:47:37 25° NE 00:50:38 10° NE visible
22 Apr 5.6 02:30:17 32° NW 02:31:13 33° NNW 02:38:25 10° NE visible
22 Apr 6.4 04:15:20 10° NW 04:21:12 22° N 04:27:11 10° NE visible
23 Apr 5.9 00:45:04 29° NE 00:45:04 29° NE 00:48:37 10° NE visible
23 Apr 5.8 02:27:44 27° NW 02:29:30 29° NNW 02:36:24 10° NE visible
23 Apr 6.5 04:13:44 10° NW 04:19:37 22° N 04:25:35 10° NE visible
24 Apr 5.7 00:42:25 32° NNE 00:42:25 32° NNE 00:46:34 10° NE visible
24 Apr 6.0 02:25:05 22° NW 02:27:49 26° NNW 02:34:25 10° NE visible
24 Apr 6.5 04:12:03 10° NW 04:18:00 22° N 04:24:02 10° NE visible
25 Apr 5.6 00:39:38 36° NNE 00:39:38 36° NNE 00:44:29 10° NE visible
25 Apr 6.2 02:22:18 17° NW 02:26:09 24° NNW 02:32:29 10° NE visible
25 Apr 6.5 04:10:17 10° NW 04:16:23 23° N 04:22:32 10° ENE visible
25 Apr 6.5 22:54:03 11° NE 22:54:03 11° NE 22:54:22 10° NE visible
26 Apr 5.5 00:36:41 38° N 00:36:41 38° N 00:42:24 10° NE visible
26 Apr 6.4 02:19:20 12° NW 02:24:30 23° N 02:30:37 10° NE visible
26 Apr 6.5 04:08:25 10° NW 04:14:44 24° NNE 04:21:05 10° ENE visible
26 Apr 6.1 22:50:51 17° NE 22:50:51 17° NE 22:52:25 10° NE visible
27 Apr 5.5 00:33:28 37° NNW 00:33:28 37° NNW 00:40:18 10° NE visible
27 Apr 6.5 02:17:15 10° NW 02:22:52 22° N 02:28:48 10° NE visible
27 Apr 6.4 04:06:30 10° NW 04:13:03 26° NNE 04:19:37 10° ENE visible
27 Apr 5.5 22:47:09 27° NE 22:47:09 27° NE 22:50:25 10° NE visible
28 Apr 5.7 00:29:42 29° NW 00:31:20 32° NNW 00:38:13 10° NE visible
28 Apr 6.5 02:15:42 10° NW 02:21:14 21° N 02:27:05 10° NE visible
28 Apr 6.3 04:04:31 10° NW 04:11:20 29° NNE 04:18:09 10° ENE visible
28 Apr 4.3 22:42:03 62° NNE 22:42:03 62° NNE 22:48:22 10° NE visible
29 Apr 6.0 00:24:23 13° WNW 00:29:34 28° NNW 00:36:09 10° NE visible
29 Apr 6.6 02:14:03 10° NW 02:19:36 21° N 02:25:26 10° NE visible
29 Apr 6.2 04:02:29 10° NW 04:09:34 32° NNE 04:16:39 10° E visible
29 Apr 4.7 20:47:19 10° S 20:52:00 27° ESE 20:57:32 10° ENE visible
29 Apr 4.4 22:32:52 10° WSW 22:38:53 63° NW 22:46:16 10° NE visible
30 Apr 6.2 00:22:15 10° WNW 00:27:51 25° NNW 00:34:07 10° NE visible
30 Apr 6.6 02:12:20 10° NW 02:17:57 21° N 02:23:51 10° NE visible
30 Apr 6.0 04:00:25 10° NW 04:07:45 36° NNE 04:15:05 10° E visible
30 Apr 4.3 20:44:41 10° S 20:49:43 36° SE 20:55:49 10° ENE visible
30 Apr 4.8 22:31:01 10° WSW 22:36:56 51° NW 22:44:09 10° NE visible
